This is the latest recevied weather packets stored in our database for station/object KF6YUA. If no packets are shown the sender has not sent any weather packets the latest 10 day(s).
| Time | Temp. | Humidity | Pressure | Rain* | Wind** | Luminosity | Snow |
|---|---|---|---|---|---|---|---|
| 1777946903 | 11.67° C | 98% | 1017.4 hPa | 2.29 mm | - | 7 W/m² | - |
| 1777946599 | 11.67° C | 98% | 1017.1 hPa | 1.78 mm | - | 1 W/m² | - |
| 1777946296 | 11.67° C | 98% | 1017.4 hPa | 1.27 mm | - | 7 W/m² | - |
| 1777945993 | 11.67° C | 97% | 1017.3 hPa | 1.27 mm | - | 10 W/m² | - |
| 1777945690 | 11.67° C | 97% | 1017.2 hPa | 1.27 mm | - | 13 W/m² | - |
| 1777945387 | 11.67° C | 97% | 1017.4 hPa | 1.27 mm | - | 15 W/m² | - |
| 1777945083 | 11.67° C | 97% | 1017.3 hPa | 1.78 mm | - | 15 W/m² | - |
| 1777944781 | 12.22° C | 97% | 1017.2 hPa | 1.27 mm | - | 13 W/m² | - |
| 1777944479 | 12.22° C | 97% | 1017.6 hPa | 1.27 mm | - | 11 W/m² | - |
| 1777944176 | 12.22° C | 97% | 1017.6 hPa | 1.27 mm | - | 11 W/m² | - |
| 1777943872 | 12.22° C | 96% | 1017.6 hPa | 1.27 mm | - | 10 W/m² | - |
| 1777943569 | 11.67° C | 96% | 1017.6 hPa | 1.27 mm | - | 6 W/m² | - |
| 1777943265 | 12.22° C | 96% | 1017.6 hPa | 1.27 mm | - | 4 W/m² | - |
| 1777942961 | 12.22° C | 96% | 1017.5 hPa | 0.51 mm | - | 21 W/m² | - |
| 1777942658 | 12.22° C | 96% | 1017.6 hPa | 0 mm | - | 26 W/m² | - |
| 1777942355 | 12.22° C | 96% | 1017.6 hPa | 0.51 mm | - | 28 W/m² | - |
| 1777942052 | 12.22° C | 95% | 1017.5 hPa | 0.51 mm | - | 32 W/m² | - |
| 1777941748 | 12.22° C | 95% | 1017.5 hPa | 1.27 mm | - | 28 W/m² | - |
| 1777941445 | 12.22° C | 95% | 1017.6 hPa | 1.78 mm | - | 24 W/m² | - |
| 1777941143 | 12.22° C | 95% | 1017.3 hPa | 2.29 mm | - | 31 W/m² | - |
| 1777940839 | 12.22° C | 95% | 1017.3 hPa | 1.78 mm | - | 31 W/m² | - |
| 1777940537 | 12.22° C | 95% | 1017.5 hPa | 1.27 mm | - | 29 W/m² | - |
| 1777940234 | 12.78° C | 95% | 1017.4 hPa | 1.27 mm | - | 21 W/m² | - |
| 1777939932 | 12.78° C | 95% | 1017.6 hPa | 1.27 mm | - | 21 W/m² | - |
| 1777939628 | 12.22° C | 94% | 1017.9 hPa | 0.51 mm | - | 23 W/m² | - |
* Rain latest hour (hover to see other rain measurements)
** Current wind speed in m/s (hover to see current wind gust speed)